STARLINK-38047, 69745

Orbit data source: Space-Track

STARLINK-38047, 69745 is a payload satellite owned by SpaceX/Seattle (US) in SSO that was launched on Thu, 02 Jul 2026 UTC via an FALCON 9 launch vehicle from the Air Force Western Test Range (AFWTR). Payload-class satellites include a variety of spacecraft equipped with specific instruments for various scientific and technological missions. These include communications satellites like Starlink; space stations such as the ISS; scientific satellites like the Hubble; Earth observation satellites from companies like Planet Labs, Umbra, and HawkEye 360; GPS; miniature CubeSats for education and research; and military/defense satellites.

Not visible in the next 10 days
Identifier
69745, 2026-150G
Orbit
SSO
Country
Flag of USUS
Related business
Manufacturer
SpaceX/Seattle
Mission
Operational spacecraft
Bus & Motor
STARLINK V2MO, Unknown motor
Mass
575 kg wet, ~530 kg dry
Launch date (UTC)
2026-07-02 (3 weeks ago)
Launch vehicle
FALCON 9
Launch site
Air Force Western Test Range (AFWTR)
Object type
Payload
Rocket body
Debris
Shape & HBR
Unknown shape, 17.7 m
Radar Cross Section
Large (>1 m²)

Expand to show TLE details & history
Last TLE update: 17 hours ago

TLE from 17 hours ago
0 STARLINK-38047
1 69745U 26150G   26202.49513237  .00320572  00000-0  20603-2 0  9993
2 69745  97.2855  41.1790 0000315 157.9044 202.2235 15.75302424  4317
Epoch: 2026-07-21T11:52Z
TLE epoch observation values (Epoch: 2026-07-21T11:52:59.436Z)
Latitude
-0.00003°
Longitude
-76.33265°
Altitude
347.135 km
Speed
7.7 km/s
True Right ascension
02h 44m 42s
True Declination
0° 00' 00"
Sunlit
Object was in daylight at epoch
Visualization orbit readout
Latitude
Unknown
Longitude
Unknown
Altitude
Unknown
Speed
Unknown
Apparent Right ascension
Unknown
Apparent Declination
Unknown
Sunlit
N/A
Visualization observer readout
Local Sidereal Time
17:43:31
Azimuth
Unknown
Elevation
Unknown
Doppler factor
Unknown
Orbital elements
Apogee altitude
340.87 km
Perigee altitude
340.446 km
Semi-major axis
6,718.795 km
Eccentricity
0.00003
Inclination
97.2855°
RAAN
41.179°
Arg. of periapsis
157.9044°
True anomaly
202.22213°
Mean anomaly
202.2235°
Eccentric anomaly
202.22282°
Mean motion
3.941 °/min
Orbital period
91.35 mins
BSTAR
0.0020603
Loading maneuver chart data...
Computing Atmospheric mass density...
Loading historical data...
Loading historical data...
Loading historical data...
Loading historical data...
Loading historical data...
Loading historical data...
Loading historical data...

Documentation

Showing up to 5 results
|